Tracking 29892 objects as of 21-Nov-2024
HD Live streaming from Space Station
objects crossing your sky now

STARLINK-11315

Track STARLINK-11315 now!
10-day predictions
STARLINK-11315 is classified as:


NORAD ID: 61692
Int'l Code: 2024-195F
Perigee: 346.2 km
Apogee: 347.9 km
Inclination: 53.2 °
Period: 91.3 minutes
Semi major axis: 6718 km
RCS: Unknown
Launch date: October 30, 2024
Source: United States (US)
Launch site: AIR FORCE WESTERN TEST RANGE (AFWTR)
Your satellite tracking list
Your tracking list is empty




NASA's NSSDC Master Catalog

Two Line Element Set (TLE):
1 61692U 24195F   24326.16667824  .00095508  00000-0  58270-3 0  9994
2 61692  53.1560 201.7085 0001278  94.9696 350.8823 15.76662544  4649
Source of the keplerian elements: AFSPC